| time (UTC) | temp F | wind direction | speed MPH | gust MPH | rain 1hr in | rain 24hr in | rain mn in | humidity % | barometer mb |
| 20260831040011 | 78 | 96 | 0.0 | 0.0 | 0.00 | 0.00 | 0.00 | 72 | 1011.6 |
| 20260831034507 | 77 | 96 | 0.0 | 0.0 | 0.00 | 0.00 | 0.00 | 72 | 1011.7 |
| 20260831033003 | 77 | 96 | 0.0 | 0.0 | 0.00 | 0.00 | 0.00 | 72 | 1011.4 |
| 20260831031558 | 76 | 96 | 0.0 | 0.0 | 0.00 | 0.00 | 0.00 | 72 | 1011.4 |
| 20260831024556 | 76 | 96 | 0.0 | 0.0 | 0.00 | 0.00 | 0.00 | 72 | 1011.3 |
| 20260831023055 | 76 | 96 | 0.0 | 0.0 | 0.00 | 0.00 | 0.00 | 72 | 1011.3 |
| 20260831021559 | 76 | 96 | 0.0 | 0.0 | 0.00 | 0.00 | 0.00 | 71 | 1011.3 |
| 20260831020056 | 76 | 96 | 0.0 | 0.0 | 0.00 | 0.00 | 0.00 | 71 | 1011.2 |
| 20260831014552 | 76 | 96 | 0.0 | 0.0 | 0.00 | 0.00 | 0.00 | 71 | 1011.2 |
| 20260831013055 | 75 | 96 | 0.0 | 0.0 | 0.00 | 0.00 | 0.00 | 70 | 1011.1 |
| 20260831011551 | 76 | 96 | 0.0 | 0.0 | 0.00 | 0.00 | 0.00 | 70 | 1011.2 |
| 20260831010109 | 76 | 96 | 0.0 | 0.0 | 0.00 | 0.00 | 0.00 | 70 | 1011.1 |
| 20260831004558 | 75 | 96 | 0.0 | 0.0 | 0.00 | 0.00 | 0.00 | 69 | 1011.0 |
| 20260831003101 | 76 | 96 | 0.0 | 0.0 | 0.00 | 0.00 | 0.00 | 69 | 1011.1 |
| 20260831001546 | 76 | 96 | 0.0 | 0.0 | 0.00 | 0.00 | 0.00 | 68 | 1011.2 |
| 20260831000045 | 77 | 96 | 0.0 | 0.0 | 0.00 | 0.00 | 0.00 | 68 | 1010.9 |
| 20260830234546 | 77 | 96 | 0.0 | 0.0 | 0.00 | 0.00 | 0.00 | 68 | 1010.8 |
| 20260830233042 | 77 | 96 | 0.0 | 0.0 | 0.00 | 0.00 | 0.00 | 68 | 1010.7 |
| 20260830231540 | 77 | 96 | 0.0 | 0.0 | 0.00 | 0.00 | 0.00 | 66 | 1010.8 |
| 20260830230039 | 78 | 96 | 0.0 | 0.0 | 0.00 | 0.00 | 0.00 | 66 | 1010.7 |
| 20260830224538 | 78 | 96 | 0.0 | 0.0 | 0.00 | 0.00 | 0.00 | 66 | 1010.8 |
| 20260830223036 | 78 | 96 | 0.0 | 0.0 | 0.00 | 0.00 | 0.00 | 66 | 1010.8 |
| 20260830221536 | 78 | 96 | 0.0 | 0.0 | 0.00 | 0.00 | 0.00 | 65 | 1010.9 |
| 20260830220036 | 79 | 96 | 0.0 | 0.0 | 0.00 | 0.00 | 0.00 | 65 | 1011.1 |
| 20260830214530 | 79 | 96 | 0.0 | 0.0 | 0.00 | 0.00 | 0.00 | 65 | 1011.1 |
| 20260830213027 | 79 | 96 | 0.0 | 3.0 | 0.00 | 0.00 | 0.00 | 64 | 1011.1 |
| 20260830211525 | 80 | 96 | 0.0 | 0.0 | 0.00 | 0.00 | 0.00 | 65 | 1011.2 |
| 20260830210023 | 81 | 96 | 0.0 | 2.0 | 0.00 | 0.00 | 0.00 | 65 | 1011.2 |
| 20260830204533 | 81 | 96 | 0.0 | 0.0 | 0.00 | 0.00 | 0.00 | 66 | 1011.2 |
| 20260830203021 | 81 | 96 | 0.0 | 0.0 | 0.00 | 0.00 | 0.00 | 65 | 1011.2 |
| 20260830201522 | 81 | 96 | 0.0 | 0.0 | 0.00 | 0.00 | 0.00 | 65 | 1011.2 |
| 20260830200020 | 82 | 96 | 0.0 | 2.0 | 0.00 | 0.00 | 0.00 | 64 | 1011.0 |
| 20260830194519 | 82 | 96 | 0.0 | 0.0 | 0.00 | 0.00 | 0.00 | 64 | 1011.2 |
| 20260830193017 | 82 | 96 | 0.0 | 0.0 | 0.00 | 0.00 | 0.00 | 63 | 1011.0 |
| 20260830191518 | 83 | 96 | 0.0 | 1.0 | 0.00 | 0.00 | 0.00 | 62 | 1010.9 |
| 20260830190018 | 83 | 96 | 0.0 | 1.0 | 0.00 | 0.00 | 0.00 | 62 | 1011.0 |
| 20260830184519 | 83 | 96 | 0.0 | 2.0 | 0.00 | 0.00 | 0.00 | 61 | 1010.9 |
| 20260830183019 | 83 | 132 | 0.0 | 0.0 | 0.00 | 0.00 | 0.00 | 61 | 1010.7 |
| 20260830181516 | 84 | 132 | 0.0 | 0.0 | 0.00 | 0.00 | 0.00 | 61 | 1010.8 |
| 20260830180014 | 84 | 132 | 0.0 | 3.0 | 0.00 | 0.00 | 0.00 | 60 | 1010.7 |
| 20260830174521 | 84 | 89 | 0.0 | 2.0 | 0.00 | 0.00 | 0.00 | 60 | 1010.7 |
| 20260830173012 | 85 | 88 | 0.0 | 3.0 | 0.00 | 0.00 | 0.00 | 59 | 1010.6 |
| 20260830171511 | 85 | 88 | 0.0 | 2.0 | 0.00 | 0.00 | 0.00 | 58 | 1010.6 |
| 20260830170009 | 85 | 88 | 0.0 | 3.0 | 0.00 | 0.00 | 0.00 | 56 | 1010.4 |
| 20260830164514 | 85 | 89 | 0.0 | 6.0 | 0.00 | 0.00 | 0.00 | 60 | 1010.1 |
| 20260830163008 | 86 | 149 | 1.0 | 5.0 | 0.00 | 0.00 | 0.00 | 62 | 1009.9 |
| 20260830161510 | 86 | 105 | 0.0 | 4.0 | 0.00 | 0.00 | 0.00 | 61 | 1010.0 |
| 20260830160008 | 86 | 149 | 1.0 | 3.0 | 0.00 | 0.00 | 0.00 | 61 | 1009.8 |
| 20260830154510 | 87 | 142 | 1.0 | 5.0 | 0.00 | 0.00 | 0.00 | 60 | 1009.7 |
| 20260830153018 | 87 | 198 | 1.0 | 9.0 | 0.00 | 0.00 | 0.00 | 59 | 1009.8 |
| 20260830151516 | 87 | 169 | 2.0 | 8.0 | 0.00 | 0.00 | 0.00 | 59 | 1009.8 |
| 20260830150006 | 88 | 164 | 1.0 | 8.0 | 0.00 | 0.00 | 0.00 | 59 | 1009.7 |
| 20260830144507 | 88 | 161 | 3.0 | 7.0 | 0.00 | 0.00 | 0.00 | 56 | 1009.8 |
| 20260830143004 | 89 | 159 | 4.0 | 9.0 | 0.00 | 0.00 | 0.00 | 54 | 1009.8 |
| 20260830141502 | 91 | 152 | 2.0 | 5.0 | 0.00 | 0.00 | 0.00 | 52 | 1009.8 |
| 20260830140002 | 92 | 198 | 2.0 | 9.0 | 0.00 | 0.00 | 0.00 | 51 | 1009.8 |
| 20260830134505 | 92 | 211 | 2.0 | 7.0 | 0.00 | 0.00 | 0.00 | 51 | 1009.8 |
| 20260830133100 | 92 | 155 | 4.0 | 11.0 | 0.00 | 0.00 | 0.00 | 51 | 1009.8 |
| 20260830131609 | 92 | 171 | 1.0 | 9.0 | 0.00 | 0.00 | 0.00 | 53 | 1009.8 |
| 20260830124559 | 92 | 177 | 0.0 | 7.0 | 0.00 | 0.00 | 0.00 | 51 | 1009.9 |
| 20260830123059 | 93 | 192 | 2.0 | 8.0 | 0.00 | 0.00 | 0.00 | 49 | 1010.0 |
| 20260830121554 | 93 | 339 | 2.0 | 6.0 | 0.00 | 0.00 | 0.00 | 50 | 1009.8 |
| 20260830120056 | 93 | 95 | 2.0 | 6.0 | 0.00 | 0.00 | 0.00 | 50 | 1010.0 |
| 20260830114551 | 93 | 84 | 1.0 | 9.0 | 0.00 | 0.00 | 0.00 | 49 | 1010.0 |
| 20260830113052 | 93 | 275 | 2.0 | 6.0 | 0.00 | 0.00 | 0.00 | 49 | 1010.0 |
| 20260830111547 | 92 | 132 | 2.0 | 7.0 | 0.00 | 0.00 | 0.00 | 50 | 1010.1 |
| 20260830110048 | 91 | 20 | 2.0 | 5.0 | 0.00 | 0.00 | 0.00 | 52 | 1010.1 |
| 20260830104556 | 92 | 16 | 1.0 | 5.0 | 0.00 | 0.00 | 0.00 | 50 | 1010.1 |
| 20260830103044 | 92 | 204 | 2.0 | 6.0 | 0.00 | 0.00 | 0.00 | 51 | 1010.1 |
| 20260830101554 | 92 | 174 | 2.0 | 8.0 | 0.00 | 0.00 | 0.00 | 49 | 1010.1 |
| 20260830100040 | 93 | 32 | 2.0 | 6.0 | 0.00 | 0.00 | 0.00 | 48 | 1010.1 |
| 20260830094538 | 92 | 51 | 2.0 | 6.0 | 0.00 | 0.00 | 0.00 | 49 | 1010.0 |
| 20260830093036 | 92 | 63 | 2.0 | 5.0 | 0.00 | 0.00 | 0.00 | 49 | 1009.9 |
| 20260830091535 | 92 | 190 | 1.0 | 6.0 | 0.00 | 0.00 | 0.00 | 49 | 1010.0 |
| 20260830090034 | 92 | 88 | 1.0 | 5.0 | 0.00 | 0.00 | 0.00 | 49 | 1010.0 |
| 20260830084531 | 92 | 101 | 2.0 | 8.0 | 0.00 | 0.00 | 0.00 | 47 | 1010.2 |
| 20260830083027 | 92 | 150 | 2.0 | 7.0 | 0.00 | 0.00 | 0.00 | 46 | 1010.2 |
| 20260830081523 | 91 | 16 | 2.0 | 10.0 | 0.00 | 0.00 | 0.00 | 45 | 1010.2 |
| 20260830080022 | 92 | 321 | 3.0 | 9.0 | 0.00 | 0.00 | 0.00 | 43 | 1010.3 |
| 20260830074521 | 91 | 360 | 1.0 | 5.0 | 0.00 | 0.00 | 0.00 | 45 | 1010.2 |
| 20260830073014 | 91 | 111 | 2.0 | 5.0 | 0.00 | 0.00 | 0.00 | 45 | 1010.1 |
| 20260830071528 | 91 | 324 | 3.0 | 8.0 | 0.00 | 0.00 | 0.00 | 44 | 1009.8 |
| 20260830070018 | 91 | 163 | 0.0 | 7.0 | 0.00 | 0.00 | 0.00 | 45 | 1009.9 |
| 20260830064503 | 91 | 326 | 2.0 | 4.0 | 0.00 | 0.00 | 0.00 | 47 | 1009.8 |
| 20260830063059 | 90 | 44 | 2.0 | 5.0 | 0.00 | 0.00 | 0.00 | 46 | 1009.8 |
| 20260830061556 | 89 | 115 | 2.0 | 4.0 | 0.00 | 0.00 | 0.00 | 47 | 1009.8 |
| 20260830060053 | 89 | 141 | 1.0 | 5.0 | 0.00 | 0.00 | 0.00 | 49 | 1009.7 |
| 20260830054559 | 88 | 107 | 1.0 | 8.0 | 0.00 | 0.00 | 0.00 | 51 | 1009.8 |
| 20260830053045 | 87 | 180 | 1.0 | 6.0 | 0.00 | 0.00 | 0.00 | 50 | 1009.7 |
| 20260830051547 | 86 | 123 | 1.0 | 4.0 | 0.00 | 0.00 | 0.00 | 51 | 1009.6 |
| 20260830044539 | 85 | 35 | 1.0 | 3.0 | 0.00 | 0.00 | 0.00 | 54 | 1009.5 |
| 20260830043029 | 84 | 5 | 1.0 | 4.0 | 0.00 | 0.00 | 0.00 | 57 | 1009.5 |
| 20260830041557 | 84 | 333 | 1.0 | 5.0 | 0.00 | 0.00 | 0.00 | 58 | 1009.4 |